August, Belize

6:40 PM CST on January 21, 2017 (GMT -0600)
Belize

Weather History for MZBZ - August, 2013

Change the Weather History Date:

Thursday, August 29, 2013

  Actual Average Record
Temperature  
Mean Temperature 78 °F -  
Max Temperature 84 °F 88 °F 94 °F (2016)
Min Temperature 73 °F 75 °F 73 °F (2007)
Cooling Degree Days 14    
Growing Degree Days 28 (Base 50)    
Moisture  
Dew Point 76 °F    
Average Humidity 89    
Maximum Humidity 100    
Minimum Humidity 66    
Precipitation  
Precipitation 0.12 in 0.36 in - ()
Sea Level Pressure  
Sea Level Pressure 29.95 in    
Wind  
Wind Speed 2 mph ()    
Max Wind Speed 8 mph    
Max Gust Speed -    
Visibility 7.4 miles    
Events Rain    
Averages and records for this station are not official NWS values.
T = Trace of Precipitation, MM = Missing Value Source: Averaged Metar Reports

Daily Weather History Graph

Daily Weather History Graph

Search for Another Location

Airport or City:

Trip Planner

Search our weather history database for the weather conditions in past years. The results will help you decide how hot, cold, wet, or windy it might be!

Date:

Astronomy

Aug. 29, 2013 Rise Set
Actual Time 5:38 AM CST 6:08 PM CST
Civil Twilight 5:16 AM CST 6:30 PM CST
Nautical Twilight 4:50 AM CST 6:56 PM CST
Astronomical Twilight 4:24 AM CST 7:22 PM CST
Moon No Moon Rise 1:11 PM CST (8/29)
Length of Visible Light 13h 14m
Length of Day
12h 30m
Last Quarter, 37% of the Moon is Illuminated
Aug 29
Last Quarter
Sep 5
New
Sep 12
First Quarter
Sep 19
Full
Sep 26
Last Quarter

Hourly Weather History & Observations

Time (CST) Temp. Heat Index Dew Point Humidity Pressure Visibility Wind Dir Wind Speed Gust Speed Precip Events Conditions
12:00 AM 75 °F - 74 °F 98% 30.00 in 12 mi Calm Calm - - Rain Light Rain
3:00 AM 74 °F - 73 °F 96% 29.93 in 12 mi Calm Calm - -   Partly Cloudy
5:00 AM 73.4 °F - 73.4 °F 100% 29.92 in 6.2 mi Calm Calm - N/A   Mostly Cloudy
6:00 AM 74 °F - 74 °F 99% 29.96 in 9 mi Calm Calm - - Rain Light Rain Showers
6:00 AM 75.2 °F - 73.4 °F 94% 29.95 in 6.2 mi Calm Calm - N/A Rain Light Rain Showers
7:00 AM 75.2 °F - 75.2 °F 100% 29.98 in 6.2 mi Calm Calm - N/A Rain Light Rain
8:00 AM 75.2 °F - 75.2 °F 100% 29.99 in 6.2 mi Calm Calm - N/A Rain Light Rain
9:00 AM 76 °F - 75 °F 95% 30.00 in 9 mi NNW 3.5 mph - - Rain Light Rain
9:00 AM 77.0 °F - 75.2 °F 94% 29.99 in 6.2 mi NNW 3.5 mph - N/A Rain Light Rain
10:00 AM 77.0 °F - 75.2 °F 94% 29.98 in 6.2 mi NW 5.8 mph - N/A Rain Light Rain
10:24 AM 77.0 °F - 75.2 °F 94% 29.99 in 6.2 mi North 4.6 mph - N/A   Mostly Cloudy
11:00 AM 80.6 °F 87.1 °F 77.0 °F 89% 29.98 in 5.0 mi NNW 5.8 mph - N/A   Mostly Cloudy
11:12 AM 80.6 °F 87.1 °F 77.0 °F 89% 29.98 in 3.1 mi North 5.8 mph - N/A Rain Light Rain
11:28 AM 80.6 °F 87.1 °F 77.0 °F 89% 29.98 in 6.2 mi NNE 6.9 mph - N/A   Mostly Cloudy
12:00 PM 82 °F - 77 °F 80% 29.97 in 14 mi North 4.6 mph - - Rain Light Rain Showers
12:00 PM 82.4 °F 90.9 °F 77.0 °F 84% 29.97 in 6.2 mi North 4.6 mph - N/A   Mostly Cloudy
1:00 PM 82.4 °F 90.9 °F 77.0 °F 84% 29.95 in 6.2 mi NNE 3.5 mph - N/A   Mostly Cloudy
2:00 PM 84.2 °F 94.1 °F 77.0 °F 79% 29.92 in 6.2 mi NE 4.6 mph - N/A   Mostly Cloudy
3:00 PM 84 °F - 74 °F 66% 29.91 in 14 mi ENE 4.6 mph - -  
3:00 PM 84.2 °F 92.3 °F 75.2 °F 74% 29.90 in 6.2 mi ENE 4.6 mph - N/A   Scattered Clouds
4:00 PM 84.2 °F 94.1 °F 77.0 °F 79% 29.89 in 6.2 mi ENE 8.1 mph - N/A   Scattered Clouds
5:00 PM 84.2 °F 94.1 °F 77.0 °F 79% 29.90 in 6.2 mi NE 5.8 mph - N/A   Scattered Clouds
6:00 PM 82.4 °F 90.9 °F 77.0 °F 84% 29.91 in 6.2 mi NE 5.8 mph - N/A   Scattered Clouds